Simultaneous Nadir Overpasses (SNOs) Predictions

Prediction of SNOs between NOAA-19 and TERRA Satellite Orbit:

Table of predicted SNOs for the next 14.0 days since TLE Epoch: 2/26/2013
Index Date (NOAA-19) Time (NOAA-19) Lat,Lon (NOAA-19) SZA (NOAA-19 ) Date (TERRA) Time (TERRA) Lat,Lon (TERRA) SZA (TERRA ) Distance(km) Time Diff (sec)
1 02/26/2013 14:03:04 69.33, -31.14 77.78 02/26/2013 14:03:59 69.33, -31.16 77.78 0.97 55
2 02/26/2013 14:54:07 -69.22, 136.26 102.36 02/26/2013 14:53:29 -69.22, 136.32 102.35 2.57 38
3 02/28/2013 18:47:30 69.33,-102.23 76.95 02/28/2013 18:48:18 69.32,-102.26 76.93 1.95 48
4 02/28/2013 19:38:33 -69.19, 65.19 103.21 02/28/2013 19:37:48 -69.21, 65.22 103.20 1.97 45
5 03/02/2013 23:31:56 69.33,-173.33 76.11 03/02/2013 23:32:36 69.35,-173.30 76.12 2.86 40
6 03/03/2013 00:22:59 -69.17, -5.88 104.07 03/03/2013 00:22:07 -69.19, -5.88 104.06 1.82 52
7 03/05/2013 04:16:22 69.33, 115.58 75.25 03/05/2013 04:16:55 69.33, 115.59 75.25 0.38 33
8 03/05/2013 05:07:25 -69.15, -76.95 104.94 03/05/2013 05:06:26 -69.16, -76.99 104.93 2.10 59
9 03/07/2013 09:00:48 69.32, 44.49 74.39 03/07/2013 09:01:14 69.30, 44.47 74.37 2.81 26
10 03/07/2013 09:51:52 -69.19,-148.10 105.76 03/07/2013 09:50:44 -69.19,-148.03 105.76 2.60 68
11 03/09/2013 13:45:14 69.32, -26.60 73.53 03/09/2013 13:45:32 69.32, -26.58 73.52 0.81 18
12 03/09/2013 14:36:17 -69.12, 140.90 106.69 03/09/2013 14:35:03 -69.16, 140.85 106.65 4.60 74
13 03/11/2013 17:39:02 -70.35, 93.46
